Tracking 29892 objects as of 21-Nov-2024
HD Live streaming from Space Station
objects crossing your sky now

CZ-6A DEB

Track CZ-6A DEB now!
10-day predictions


NORAD ID: 55862
Int'l Code: 2022-151ZJ
Perigee: 815.3 km
Apogee: 816.4 km
Inclination: 98.8 °
Period: 101.1 minutes
Semi major axis: 7186 km
RCS: Unknown
Launch date: November 11, 2022
Source: People's Republic of China (PRC)
Launch site: Taiyaun Space Center, China (TSC)

Note: This is SATELLITE DEBRIS
Your satellite tracking list
Your tracking list is empty




NASA's NSSDC Master Catalog

Two Line Element Set (TLE):
1 55862U 22151ZJ  24323.48173452  .00003955  00000-0  17101-2 0  9999
2 55862  98.7806 334.8233 0000789  35.9363 324.1869 14.24938146 98232
Source of the keplerian elements: AFSPC